Tracking 18951 objects as of 21-Jan-2018
HD Live streaming from Space Station
objects crossing your sky now

COSMOS 1856

Track COSMOS 1856 now!
10-day predictions
COSMOS 1856 is classified as:


NORAD ID: 18117
Int'l Code: 1987-051E
Perigee: 1,438.0 km
Apogee: 1,484.6 km
Inclination: 74.0 °
Period: 115.0 minutes
Semi major axis: 7832 km
RCS: 0.6718 m2 (medium)
Launch date: June 16, 1987
Source: Commonwealth of Independent States (former USSR) (CIS)
Launch site: PLESETSK MISSILE AND SPACE COMPLEX (PKMTR)
aabbcc
Your satellite tracking list
Your tracking list is empty




NASA's NSSDC Master Catalog

Two Line Element Set (TLE):
1 18117U 87051E   18020.93037646 -.00000020 +00000-0 -24604-4 0  9992
2 18117 074.0049 358.0228 0029750 188.6520 200.8411 12.52483637399069
Source of the keplerian elements: AFSPC